Home   Weather   Prievidza   Past weeks

Flag for Slovakia Past Weather in Prievidza, Slovakia — Yesterday and Last 2 Weeks

Now
51 °F

Scattered clouds.


Feels Like: 51 °F
Forecast: 40 / 51 °F
Wind: 3 mph from Northwest

Location: Prievidza

Current Time: Feb 27, 2017 at 12:33:05 pm

Latest Report: Feb 27, 2017 at 11:00 am


Visibility: 19 mi

Pressure: 29.98 "Hg

Humidity: 70%

Dew Point: 42 °F

Location of PrievidzaLocation

Past Weather in Prievidza — Graph

°F

Prievidza Temperature Yesterday

Maximum temperature yesterday: 44 °F (at 2:00 pm)
Minimum temperature yesterday: 27 °F (at 12:00 am)
Average temperature yesterday: 34 °F

High & Low Weather Summary for the Past Weeks

 TemperatureHumidityPressure
High51 °F (Feb 27, 11:00 am)99% (Feb 17, 7:00 am)30.92 "Hg (Feb 17, 7:00 am)
Low20 °F (Feb 14, 7:00 am)39% (Feb 25, 3:00 pm)29.53 "Hg (Feb 24, 3:00 am)
Average35 °F83%30.22 "Hg
* Reported Feb 12 11:00 am — Feb 27 11:00 am, Prievidza, Weather by CustomWeather, © 2017

Note: Actual official high and low records may vary slightly from our data, if they occured in-between our weather recording intervals... More about our weather records

Advertising

Prievidza Weather History for the Previous 24 Hours

Scroll right to see more
 ConditionsComfort  
Time TempWeatherWind HumidityBarometerVisibility
11:00 am
Mon, Feb 27
51 °FScattered clouds.3 mph70%29.98 "Hg19 mi
10:00 am47 °FPassing clouds.3 mph70%30.02 "Hg22 mi
9:00 am37 °FSunny.N/A79%30.06 "Hg22 mi
8:00 am29 °FSunny.N/A93%30.10 "Hg16 mi
7:00 am24 °FSunny.No wind91%30.11 "Hg6 mi
6:00 am24 °FCold.No wind90%30.12 "Hg6 mi
5:00 am25 °FCold.No wind90%30.12 "Hg6 mi
4:00 am26 °FChilly.No wind90%30.12 "Hg6 mi
3:00 am26 °FChilly.No wind88%30.11 "Hg6 mi
2:00 am27 °FChilly.1 mph86%30.12 "Hg7 mi
1:00 am27 °FFog.N/A86%30.13 "Hg4 mi
12:00 am30 °FChilly.1 mph84%30.12 "Hg10 mi
11:00 pm
Sun, Feb 26
31 °FChilly.N/A79%30.13 "Hg9 mi
10:00 pm32 °FChilly.N/A80%30.12 "Hg7 mi
9:00 pm35 °FPassing clouds.1 mph70%30.12 "Hg11 mi
8:00 pm38 °FOvercast.1 mph65%30.11 "Hg11 mi
7:00 pm38 °FOvercast.No wind68%30.11 "Hg22 mi
6:00 pm39 °FOvercast.No wind62%30.10 "Hg19 mi
5:00 pm41 °FOvercast.N/A47%30.09 "Hg28 mi
4:00 pm43 °FOvercast.2 mph46%30.09 "Hg28 mi
3:00 pm43 °FOvercast.3 mph46%30.10 "Hg31 mi
2:00 pm44 °FOvercast.5 mph53%30.10 "Hg28 mi
1:00 pm43 °FOvercast.N/A53%30.13 "Hg28 mi
12:00 pm42 °FOvercast.N/A54%30.16 "Hg25 mi
Weather by CustomWeather, © 2017

See weather overviewHow to use our weather pages